sat.trackr.live / text

‹ back to catalog

STARLINK-37132

NORAD 68233 · 2026-054B

PAYLOAD ACTIVE UNKNOWN

§ Identity

Operator
Country
US
Launch date
2026-03-17
Launch site
AFETR
Launch vehicle
Mass (kg)
RCS (m²)

Purposes: comms

External: N2YO · Heavens-Above · Gunter

§ Orbital elements

Epoch: 2026-05-25T03:02:21.664896Z

Period
92.94 min
Inclination
53.1582°
Eccentricity
0.0001329
Mean motion
15.49353973 rev/d
Perigee alt
417.7 km
Apogee alt
419.5 km
Semi-major
6,796.8 km
B*
9.4150e-4
RAAN
297.6441°
Arg perigee
82.5080°
Mean anomaly
277.6080°
Rev number
1,075

§ Raw data

STARLINK-371321 68233U 26054B   26145.12663964  .00052349  00000+0  94150-3 0  99982 68233  53.1582 297.6441 0001329  82.5080 277.6080 15.49353973 10751

JSON: /api/v1/satellites/68233 · /tle

For live sub-satellite position, see the globe view (requires WebGL).

§ Visibility from observer

Set your observer location to see the next 7 days of passes ≥ 10°. The values pass through the URL so the page stays shareable.

No JS? Fill the form by hand. The geolocation button needs JavaScript.